• In Uzbekistan
  • List of Countries
  • For 7 days
  • Water Temperature
  • Satellite Maps
  • Weather Map
  • Weather Widgets
  • user-avatar
    Login

    Hourly Weather Stankowa

    Today, 11 December, Tuesday

    Time Temperature Precipitation Wind Pressure Humidity
    00:00 -2°C° 0 mm 3 mps 716 mmHg 91%
    01:00 -2°C° 0 mm 3 mps 717 mmHg 90%
    02:00 -2°C° 0 mm 2 mps 717 mmHg 90%
    03:00 -3°C° 0 mm 2 mps 717 mmHg 90%
    04:00 -3°C° 0 mm 2 mps 717 mmHg 90%
    05:00 -3°C° 0 mm 2 mps 717 mmHg 90%
    06:00 -3°C° 0 mm 2 mps 717 mmHg 90%
    07:00 -4°C° 0 mm 2 mps 717 mmHg 90%
    08:00 -3°C° 0 mm 2 mps 717 mmHg 85%
    09:00 -2°C° 0 mm 2 mps 718 mmHg 79%
    10:00 -1°C° 0 mm 2 mps 718 mmHg 74%
    11:00 0°C° 0 mm 3 mps 718 mmHg 73%
    12:00 0°C° 0 mm 3 mps 718 mmHg 72%
    13:00 0°C° 0 mm 3 mps 718 mmHg 72%
    14:00 0°C° 0 mm 3 mps 718 mmHg 76%
    15:00 -1°C° 0 mm 3 mps 718 mmHg 80%
    16:00 -2°C° 0 mm 3 mps 718 mmHg 84%
    17:00 -2°C° 0 mm 3 mps 718 mmHg 85%
    18:00 -2°C° 0 mm 2 mps 718 mmHg 87%
    19:00 -2°C° 0 mm 2 mps 718 mmHg 88%
    20:00 -2°C° 0 mm 2 mps 718 mmHg 89%
    21:00 -3°C° 0 mm 2 mps 718 mmHg 89%
    22:00 -3°C° 0 mm 2 mps 718 mmHg 90%
    23:00 -1°C° 0.1 mm 1 mps 718 mmHg 91%

    Tomorrow, 12 December, Wednesday

    Time Temperature Precipitation Wind Pressure Humidity
    00:00 -1°C° 0.1 mm 1 mps 719 mmHg 91%
    01:00 -1°C° 0.1 mm 1 mps 719 mmHg 92%
    02:00 -1°C° 0.1 mm 1 mps 719 mmHg 92%
    03:00 -2°C° 0.1 mm 0 mps 719 mmHg 91%
    04:00 -1°C° 0.1 mm 0 mps 719 mmHg 91%
    05:00 -2°C° 0 mm 0 mps 719 mmHg 92%
    06:00 -2°C° 0 mm 0 mps 720 mmHg 92%
    07:00 -2°C° 0 mm 0 mps 720 mmHg 93%
    08:00 -1°C° 0 mm 0 mps 720 mmHg 90%
    09:00 0°C° 0 mm 1 mps 721 mmHg 86%
    10:00 +1°C° 0 mm 1 mps 721 mmHg 83%
    11:00 +1°C° 0 mm 1 mps 721 mmHg 82%
    12:00 +1°C° 0 mm 1 mps 721 mmHg 81%
    13:00 +2°C° 0 mm 1 mps 721 mmHg 79%
    14:00 -1°C° 0 mm 2 mps 721 mmHg 82%
    15:00 -2°C° 0 mm 2 mps 721 mmHg 85%
    16:00 -2°C° 0 mm 2 mps 721 mmHg 88%
    17:00 -3°C° 0 mm 2 mps 722 mmHg 89%
    18:00 -3°C° 0 mm 2 mps 722 mmHg 91%
    19:00 -3°C° 0 mm 2 mps 722 mmHg 93%
    20:00 -3°C° 0 mm 2 mps 722 mmHg 92%
    21:00 -3°C° 0 mm 2 mps 722 mmHg 92%
    22:00 -4°C° 0 mm 3 mps 722 mmHg 91%
    23:00 -4°C° 0.3 mm 3 mps 722 mmHg 91%

    Day after tomorrow, 13 December, Thursday

    Time Temperature Precipitation Wind Pressure Humidity
    00:00 -4°C° 0.3 mm 3 mps 722 mmHg 92%
    01:00 -4°C° 0.3 mm 3 mps 722 mmHg 92%
    02:00 -4°C° 0.4 mm 3 mps 722 mmHg 92%
    03:00 -4°C° 0.4 mm 3 mps 721 mmHg 92%
    04:00 -4°C° 0.4 mm 4 mps 721 mmHg 92%
    05:00 -4°C° 0.4 mm 4 mps 721 mmHg 92%
    06:00 -4°C° 0.4 mm 4 mps 721 mmHg 92%
    07:00 -4°C° 0.4 mm 4 mps 721 mmHg 93%
    08:00 -4°C° 0.4 mm 4 mps 721 mmHg 92%
    09:00 -4°C° 0.4 mm 4 mps 721 mmHg 92%
    10:00 -4°C° 0.4 mm 4 mps 721 mmHg 91%
    11:00 -2°C° 0.3 mm 3 mps 721 mmHg 91%
    12:00 -2°C° 0.3 mm 3 mps 721 mmHg 91%
    13:00 -2°C° 0.3 mm 3 mps 721 mmHg 90%
    14:00 -2°C° 0.2 mm 3 mps 721 mmHg 91%
    15:00 -4°C° 0.2 mm 3 mps 721 mmHg 92%
    16:00 -4°C° 0.2 mm 3 mps 721 mmHg 94%
    17:00 -4°C° 0.2 mm 3 mps 722 mmHg 94%
    18:00 -4°C° 0.2 mm 3 mps 722 mmHg 94%
    19:00 -3°C° 0.2 mm 2 mps 722 mmHg 95%
    20:00 -3°C° 0.2 mm 2 mps 722 mmHg 95%
    21:00 -3°C° 0.2 mm 2 mps 722 mmHg 95%
    22:00 -3°C° 0.2 mm 2 mps 723 mmHg 96%
    23:00 -3°C° 0.1 mm 2 mps 723 mmHg 96%

    14 December, Friday

    Time Temperature Precipitation Wind Pressure Humidity
    00:00 -3°C° 0.1 mm 2 mps 723 mmHg 96%
    01:00 -3°C° 0.1 mm 2 mps 723 mmHg 95%
    02:00 -3°C° 0.1 mm 2 mps 724 mmHg 95%
    03:00 -3°C° 0.1 mm 2 mps 724 mmHg 95%
    04:00 -3°C° 0.1 mm 2 mps 724 mmHg 95%
    05:00 -3°C° 0.1 mm 2 mps 724 mmHg 96%
    06:00 -3°C° 0.1 mm 2 mps 725 mmHg 96%
    07:00 -3°C° 0.1 mm 2 mps 725 mmHg 96%
    08:00 -3°C° 0.1 mm 2 mps 726 mmHg 95%
    09:00 -1°C° 0.1 mm 1 mps 726 mmHg 94%
    10:00 0°C° 0.1 mm 1 mps 727 mmHg 93%
    11:00 0°C° 0 mm 1 mps 727 mmHg 92%
    12:00 0°C° 0 mm 1 mps 727 mmHg 91%
    13:00 0°C° 0 mm 1 mps 727 mmHg 90%
    14:00 0°C° 0.1 mm 1 mps 727 mmHg 91%
    15:00 0°C° 0.1 mm 1 mps 728 mmHg 92%
    16:00 -1°C° 0.1 mm 1 mps 728 mmHg 93%
    17:00 -1°C° 0 mm 1 mps 728 mmHg 93%
    18:00 -1°C° 0 mm 1 mps 729 mmHg 94%
    19:00 -1°C° 0 mm 1 mps 729 mmHg 94%
    20:00 -2°C° 0 mm 1 mps 729 mmHg 94%
    21:00 -3°C° 0 mm 1 mps 730 mmHg 94%
    22:00 -3°C° 0 mm 1 mps 730 mmHg 94%
    23:00 -4°C° 0 mm 1 mps 730 mmHg 94%

    15 December, Saturday

    Time Temperature Precipitation Wind Pressure Humidity
    00:00 -4°C° 0 mm 1 mps 730 mmHg 93%
    01:00 -6°C° 0 mm 1 mps 730 mmHg 93%
    02:00 -6°C° 0 mm 1 mps 730 mmHg 93%
    03:00 -6°C° 0 mm 1 mps 730 mmHg 93%
    04:00 -6°C° 0 mm 1 mps 730 mmHg 92%
    05:00 -6°C° 0 mm 1 mps 731 mmHg 92%
    06:00 -6°C° 0 mm 1 mps 731 mmHg 93%
    07:00 -6°C° 0 mm 1 mps 731 mmHg 93%
    08:00 -4°C° 0 mm 1 mps 731 mmHg 91%
    09:00 -3°C° 0 mm 1 mps 732 mmHg 89%
    10:00 -5°C° 0 mm 2 mps 732 mmHg 88%
    11:00 -4°C° 0 mm 2 mps 732 mmHg 86%
    12:00 -4°C° 0 mm 2 mps 732 mmHg 85%
    13:00 -3°C° 0 mm 2 mps 732 mmHg 83%
    14:00 -4°C° 0 mm 2 mps 732 mmHg 85%
    15:00 -4°C° 0 mm 2 mps 732 mmHg 86%
    16:00 -4°C° 0 mm 2 mps 732 mmHg 88%
    17:00 -5°C° 0 mm 2 mps 732 mmHg 89%
    18:00 -5°C° 0 mm 2 mps 732 mmHg 90%
    19:00 -6°C° 0 mm 2 mps 732 mmHg 92%
    20:00 -6°C° 0 mm 2 mps 732 mmHg 92%
    21:00 -7°C° 0 mm 2 mps 732 mmHg 93%
    22:00 -7°C° 0 mm 2 mps 732 mmHg 93%
    23:00 -7°C° 0 mm 2 mps 732 mmHg 93%

    16 December, Sunday

    Time Temperature Precipitation Wind Pressure Humidity
    00:00 -7°C° 0 mm 2 mps 732 mmHg 93%
    01:00 -7°C° 0 mm 2 mps 731 mmHg 93%
    02:00 -7°C° 0 mm 2 mps 731 mmHg 92%
    03:00 -7°C° 0 mm 2 mps 731 mmHg 92%
    04:00 -7°C° 0 mm 2 mps 731 mmHg 92%
    05:00 -8°C° 0 mm 2 mps 731 mmHg 92%
    06:00 -8°C° 0 mm 2 mps 731 mmHg 92%
    07:00 -8°C° 0 mm 2 mps 731 mmHg 91%
    08:00 -7°C° 0 mm 2 mps 731 mmHg 88%
    09:00 -6°C° 0 mm 2 mps 731 mmHg 85%
    10:00 -5°C° 0 mm 2 mps 731 mmHg 83%
    11:00 -4°C° 0 mm 2 mps 731 mmHg 81%
    12:00 -4°C° 0 mm 2 mps 731 mmHg 80%
    13:00 -3°C° 0 mm 2 mps 731 mmHg 79%
    14:00 -4°C° 0 mm 2 mps 731 mmHg 82%
    15:00 -5°C° 0 mm 2 mps 731 mmHg 86%
    16:00 -6°C° 0 mm 2 mps 731 mmHg 89%
    17:00 -6°C° 0 mm 2 mps 731 mmHg 90%
    18:00 -7°C° 0 mm 2 mps 731 mmHg 90%
    19:00 -7°C° 0 mm 2 mps 731 mmHg 90%
    20:00 -7°C° 0 mm 2 mps 731 mmHg 90%
    21:00 -7°C° 0 mm 2 mps 731 mmHg 90%
    22:00 -7°C° 0 mm 2 mps 731 mmHg 89%
    23:00 -7°C° 0 mm 2 mps 731 mmHg 89%
    Show more